Weather Roundup
Issued by NWS Chicago, IL

Home | Current Version | Previous Version | Graphics & Text | Print | Product List | Glossary On
Versions: 1 2 3 4 5 6 7 8 9 10 11 12 13 14 15 16 17 18 19 20 21 22 23 24 25 26 27 28 29 30 31 32 33 34 35 36 37 38 39 40 41 42 43 44 45 46 47 48 49 50
000
NZUS59 KLOT 181104
HRRLOT

CHICAGO AREA WEATHER ROUNDUP
NATIONAL WEATHER SERVICE CHICAGO/ROMEOVILLE IL
600 AM CDT WED OCT 18 2017

NOTE: "FAIR" INDICATES FEW OR NO CLOUDS BELOW 12,000 FEET WITH NO
SIGNIFICANT WEATHER AND/OR OBSTRUCTIONS TO VISIBILITY.

* THESE STATIONS ARE NOT UNDER NWS QUALITY CONTROL. THEY ALSO MAY NOT
  REPORT WEATHER SUCH AS PRECIPITATION OR FOG.

ILZ005-006-012>014-019>023-181200-
NORTHEAST ILLINOIS

CITY           SKY/WX    TMP DP  RH WIND       PRES   REMARKS
OHARE          CLEAR     48  41  76 S7        30.15S
MIDWAY         CLEAR     50  41  71 S9        30.17S
AURORA         CLEAR     44  40  85 SE7       30.16S
LANSING*       CLEAR     46  42  85 S9        30.20R
JOLIET*        CLEAR     44  41  91 SE3       30.18S
WAUKEGAN       CLEAR     49  41  74 SW12      30.13R
DUPAGE AIRPORT CLEAR     45  41  86 S8        30.15S
WHEELING       PTCLDY    49  42  77 S7        30.16S
KANKAKEE*      CLEAR     46  40  79 S7        30.21S
$$

WIZ051-052-058>065-066-070>072-181200-
SOUTHEAST WISCONSIN

CITY           SKY/WX    TMP DP  RH WIND       PRES   REMARKS
MILWAUKEE      CLEAR     51  41  68 S8        30.11R
KENOSHA*       CLEAR     49  40  71 S7        30.13R
RACINE*        CLEAR     50  41  71 SW10      30.13R
WAUKESHA       CLEAR     48  39  71 SW7       30.10S
WEST BEND      CLEAR     52  39  62 S5        30.08R
$$

INZ001>003-010>013-019-020-181200-
NORTHWEST INDIANA

CITY           SKY/WX    TMP DP  RH WIND       PRES   REMARKS
GARY*          CLEAR     54  39  58 S12       30.20R
MICHIGAN CITY* NOT AVBL
RENSSELAER*    NOT AVBL
VALPARAISO     CLEAR     46  40  79 S6        30.22R
$$

LMZ740>746-181200-
SOUTHERN LAKE MICHIGAN

STATION/POSITION TIME  SKY/WX   TEMP WIND        PRES    VSBY
                                AIR  DIR/SP/G
                 (UTC)          (F)  (DEG/KT/KT) (MB)    (MI)
HARRISON CRIB    1040            55  210/ 18/ 20   N/A
BURNHAM HARBOR   1045            53  190/ 11       N/A
CALUMET HARBOR   1030            50  170/  7/ 10 1021.2R
BURNS HARBOR     1040            51  180/ 11/ 15 1023.0R
MICHIGAN CITY    1040            51  160/ 14/ 16   N/A
$$

ABBREVIATIONS USED IN REMARKS
   TC - TEMPERATURE IN CELSIUS
  WCI - WIND CHILL INDEX
   HX - HEAT INDEX
  VSB - VISIBILITY
$$




USA.gov is the U.S. government's official web portal to all federal, state and local government web resources and services.